QPF
0.04 0.04 0.04 0.05 0.04 0.05 0.05 0.05 0.04 0.03 0.03 0.02 0.02 0.03 0.03 0.02 0.03 0.03 0.03 0.03 0.05 0.05 0.05 0.06 0.06 0.06 0.07 0.06 0.05 0.05 0.06 0.07 0.08 0.09 0.09 0.08 0.07 0.04 0.03 0.02 0.01 0.02 0.03
0.03 0.04 0.03 0.04 0.04 0.04 0.04 0.05 0.05 0.04 0.04 0.03 0.02 0.02 0.02 0.02 0.03 0.03 0.03 0.04 0.04 0.04 0.04 0.05 0.05 0.05 0.06 0.05 0.05 0.05 0.05 0.06 0.07 0.08 0.10 0.10 0.10 0.07 0.05 0.02 0.01 0.01 0.01
0.04 0.04 0.04 0.04 0.04 0.04 0.04 0.04 0.04 0.04 0.05 0.04 0.03 0.02 0.02 0.02 0.03 0.03 0.04 0.04 0.05 0.04 0.04 0.04 0.04 0.04 0.04 0.04 0.05 0.04 0.03 0.04 0.06 0.06 0.08 0.10 0.10 0.08 0.06 0.04 0.02 0.02 0.01
0.04 0.03 0.03 0.04 0.05 0.05 0.04 0.03 0.04 0.05 0.06 0.05 0.05 0.03 0.02 0.01 0.02 0.03 0.04 0.03 0.03 0.03 0.03 0.03 0.03 0.04 0.04 0.04 0.05 0.05 0.05 0.05 0.05 0.06 0.06 0.08 0.09 0.07 0.06 0.04 0.04 0.04 0.02
0.04 0.05 0.05 0.04 0.04 0.04 0.05 0.04 0.04 0.04 0.05 0.05 0.05 0.05 0.04 0.02 0.02 0.02 0.03 0.03 0.03 0.03 0.04 0.03 0.03 0.04 0.05 0.04 0.04 0.05 0.06 0.06 0.07 0.07 0.07 0.07 0.08 0.08 0.06 0.04 0.04 0.04 0.03
0.05 0.05 0.05 0.04 0.04 0.05 0.05 0.05 0.03 0.03 0.03 0.03 0.05 0.06 0.05 0.03 0.02 0.01 0.02 0.03 0.05 0.05 0.04 0.05 0.05 0.05 0.04 0.03 0.03 0.04 0.06 0.05 0.05 0.05 0.06 0.06 0.07 0.07 0.07 0.06 0.06 0.05 0.04
0.05 0.06 0.06 0.05 0.04 0.06 0.05 0.04 0.04 0.04 0.03 0.03 0.03 0.04 0.04 0.05 0.03 0.01 0.01 0.02 0.03 0.05 0.05 0.05 0.04 0.04 0.04 0.03 0.03 0.03 0.04 0.04 0.03 0.03 0.04 0.05 0.06 0.06 0.07 0.06 0.06 0.05 0.04
0.06 0.06 0.06 0.05 0.05 0.06 0.06 0.06 0.05 0.04 0.03 0.03 0.03 0.03 0.04 0.04 0.03 0.01 0.01 0.02 0.03 0.04 0.04 0.04 0.04 0.05 0.05 0.05 0.05 0.05 0.05 0.04 0.02 0.02 0.02 0.02 0.02 0.03 0.04 0.04 0.05 0.04 0.04
0.08 0.07 0.07 0.06 0.06 0.06 0.07 0.07 0.07 0.05 0.04 0.04 0.05 0.05 0.05 0.05 0.02 0.01 0.01 0.02 0.03 0.02 0.03 0.03 0.03 0.04 0.03 0.03 0.04 0.05 0.06 0.05 0.03 0.02 0.02 0.01 0.01 0.01 0.02 0.03 0.04 0.04 0.04
0.11 0.10 0.07 0.07 0.06 0.06 0.06 0.07 0.07 0.07 0.07 0.06 0.05 0.06 0.07 0.06 0.04 0.02 0.01 0.03 0.04 0.04 0.04 0.03 0.03 0.03 0.02 0.03 0.04 0.05 0.04 0.05 0.04 0.02 0.02 0.02 0.01 0.01 0.01 0.02 0.03 0.05 0.05
0.11 0.09 0.08 0.07 0.06 0.06 0.07 0.09 0.09 0.09 0.08 0.07 0.07 0.06 0.07 0.07 0.06 0.03 0.02 0.03 0.05 0.06 0.05 0.06 0.05 0.03 0.02 0.02 0.04 0.04 0.04 0.04 0.04 0.03 0.03 0.03 0.02 0.02 0.03 0.04 0.04 0.05 0.05
0.06 0.07 0.09 0.09 0.09 0.09 0.09 0.10 0.12 0.13 0.11 0.09 0.08 0.08 0.09 0.08 0.05 0.04 0.03 0.02 0.03 0.04 0.05 0.06 0.05 0.03 0.03 0.03 0.04 0.04 0.03 0.03 0.03 0.04 0.04 0.03 0.02 0.02 0.03 0.04 0.04 0.04 0.03
0.05 0.06 0.10 0.12 0.12 0.12 0.11 0.09 0.08 0.11 0.13 0.12 0.09 0.09 0.09 0.09 0.06 0.04 0.03 0.04 0.04 0.03 0.03 0.04 0.04 0.04 0.03 0.04 0.04 0.03 0.03 0.02 0.03 0.03 0.04 0.04 0.04 0.03 0.03 0.03 0.03 0.03 0.02
0.04 0.06 0.08 0.11 0.10 0.08 0.07 0.07 0.06 0.07 0.08 0.09 0.10 0.10 0.09 0.08 0.05 0.05 0.05 0.04 0.04 0.03 0.02 0.02 0.02 0.02 0.02 0.03 0.02 0.03 0.03 0.03 0.04 0.03 0.05 0.06 0.06 0.04 0.03 0.03 0.03 0.04 0.03
0.04 0.05 0.07 0.07 0.06 0.06 0.04 0.04 0.04 0.03 0.03 0.04 0.05 0.05 0.06 0.06 0.04 0.05 0.06 0.06 0.06 0.05 0.04 0.03 0.02 0.01 0.01 0.01 0.01 0.02 0.03 0.04 0.04 0.04 0.04 0.05 0.05 0.04 0.02 0.02 0.03 0.04 0.04
0.05 0.05 0.07 0.05 0.03 0.03 0.03 0.02 0.02 0.01 0.02 0.02 0.02 0.02 0.02 0.03 0.03 0.03 0.03 0.03 0.05 0.06 0.07 0.06 0.05 0.03 0.02 0.03 0.03 0.03 0.03 0.04 0.04 0.03 0.02 0.02 0.02 0.02 0.02 0.02 0.02 0.02 0.03
0.05 0.06 0.07 0.05 0.02 0.02 0.01 0.01 0.01 0.01 0.02 0.02 0.02 0.02 0.01 0.02 0.02 0.01 0.01 0.02 0.04 0.06 0.08 0.08 0.07 0.05 0.05 0.04 0.04 0.03 0.02 0.02 0.04 0.02 0.01 0.01 0.01 0.01 0.01 0.01 0.01 0.02 0.02
0.05 0.05 0.06 0.05 0.02 0.01 0.01 0.01 0.01 0.01 0.02 0.02 0.02 0.01 0.02 0.01 0.01 0.01 0.02 0.02 0.04 0.05 0.06 0.06 0.07 0.07 0.07 0.06 0.06 0.05 0.03 0.02 0.03 0.03 0.02 0.01 0.01 0.02 0.02 0.02 0.02 0.03 0.03
0.04 0.05 0.06 0.07 0.03 0.02 0.02 0.01 0.01 0.01 0.01 0.01 0.02 0.02 0.01 0.01 0.01 0.01 0.02 0.02 0.03 0.04 0.04 0.04 0.04 0.05 0.05 0.05 0.05 0.05 0.04 0.02 0.02 0.04 0.04 0.02 0.02 0.02 0.02 0.02 0.02 0.03 0.02
0.02 0.03 0.04 0.05 0.03 0.01 0.01 0.01 0.01 0.01 0.01 0.02 0.02 0.03 0.03 0.02 0.01 0.01 0.01 0.02 0.03 0.03 0.03 0.03 0.02 0.03 0.04 0.04 0.04 0.06 0.05 0.03 0.02 0.02 0.03 0.02 0.02 0.02 0.03 0.03 0.04 0.04 0.04
0.01 0.01 0.03 0.03 0.02 0.01 0.01 0.01 0.01 0.01 0.01 0.02 0.02 0.03 0.04 0.03 0.02 0.01 0.01 0.01 0.02 0.02 0.03 0.04 0.03 0.03 0.03 0.03 0.03 0.05 0.08 0.05 0.03 0.02 0.02 0.03 0.02 0.03 0.03 0.04 0.03 0.04 0.04
0.00 0.01 0.01 0.02 0.02 0.01 0.01 0.01 0.01 0.01 0.01 0.01 0.01 0.02 0.02 0.02 0.02 0.02 0.02 0.01 0.01 0.01 0.02 0.04 0.04 0.04 0.05 0.03 0.02 0.02 0.05 0.06 0.05 0.03 0.02 0.03 0.03 0.03 0.03 0.03 0.03 0.04 0.04
0.01 0.01 0.01 0.01 0.02 0.01 0.01 0.01 0.01 0.01 0.01 0.01 0.01 0.02 0.02 0.02 0.02 0.02 0.02 0.03 0.02 0.02 0.02 0.03 0.05 0.07 0.08 0.05 0.03 0.03 0.03 0.05 0.05 0.04 0.04 0.04 0.03 0.03 0.03 0.03 0.03 0.03 0.04
0.02 0.02 0.01 0.01 0.01 0.01 0.01 0.01 0.01 0.01 0.01 0.01 0.01 0.02 0.02 0.02 0.02 0.02 0.02 0.02 0.02 0.02 0.02 0.02 0.03 0.04 0.05 0.04 0.03 0.03 0.03 0.03 0.05 0.06 0.05 0.05 0.04 0.03 0.03 0.03 0.03 0.03 0.03
0.02 0.02 0.02 0.02 0.01 0.01 0.01 0.01 0.01 0.01 0.01 0.01 0.01 0.02 0.02 0.02 0.02 0.02 0.02 0.02 0.01 0.01 0.01 0.01 0.01 0.01 0.02 0.02 0.02 0.03 0.04 0.04 0.04 0.05 0.05 0.05 0.04 0.04 0.04 0.03 0.03 0.02 0.02
0.03 0.03 0.02 0.02 0.02 0.02 0.02 0.01 0.01 0.01 0.02 0.02 0.02 0.02 0.03 0.02 0.02 0.02 0.02 0.02 0.01 0.01 0.01 0.01 0.01 0.01 0.01 0.01 0.02 0.02 0.04 0.04 0.05 0.05 0.05 0.04 0.04 0.04 0.04 0.04 0.03 0.02 0.02
MSLP
1008.31 1008.06 1007.84 1007.66 1007.52 1007.45 1007.44 1007.51 1007.65 1007.87 1008.14 1008.45 1008.77 1009.08 1009.37 1009.62 1009.83 1010.02 1010.20 1010.38 1010.58 1010.81 1011.07 1011.36 1011.66 1011.95 1012.23 1012.46 1012.63 1012.73 1012.76 1012.72 1012.61 1012.46 1012.28 1012.08 1011.91 1011.77 1011.69 1011.69 1011.77 1011.93 1012.18
1009.17 1008.87 1008.59 1008.35 1008.16 1008.03 1007.96 1007.97 1008.05 1008.20 1008.41 1008.66 1008.94 1009.22 1009.49 1009.74 1009.97 1010.18 1010.38 1010.58 1010.78 1011.00 1011.24 1011.49 1011.75 1012.00 1012.24 1012.45 1012.62 1012.72 1012.77 1012.75 1012.67 1012.53 1012.36 1012.16 1011.97 1011.81 1011.69 1011.64 1011.67 1011.77 1011.96
1009.91 1009.60 1009.31 1009.06 1008.85 1008.69 1008.60 1008.57 1008.60 1008.71 1008.86 1009.07 1009.30 1009.56 1009.82 1010.07 1010.32 1010.55 1010.76 1010.97 1011.17 1011.37 1011.58 1011.78 1011.99 1012.20 1012.39 1012.57 1012.72 1012.83 1012.89 1012.90 1012.84 1012.73 1012.57 1012.37 1012.17 1011.98 1011.83 1011.73 1011.70 1011.74 1011.86
1010.44 1010.16 1009.90 1009.66 1009.47 1009.33 1009.24 1009.20 1009.22 1009.29 1009.42 1009.59 1009.79 1010.02 1010.26 1010.52 1010.76 1011.00 1011.22 1011.43 1011.62 1011.79 1011.95 1012.11 1012.27 1012.42 1012.58 1012.73 1012.86 1012.98 1013.05 1013.07 1013.04 1012.94 1012.79 1012.60 1012.38 1012.17 1011.98 1011.83 1011.74 1011.72 1011.78
1010.73 1010.49 1010.27 1010.09 1009.94 1009.84 1009.77 1009.76 1009.78 1009.85 1009.95 1010.09 1010.26 1010.46 1010.68 1010.91 1011.15 1011.37 1011.59 1011.78 1011.95 1012.10 1012.22 1012.33 1012.44 1012.56 1012.68 1012.80 1012.93 1013.04 1013.12 1013.16 1013.14 1013.06 1012.91 1012.72 1012.49 1012.24 1012.01 1011.82 1011.68 1011.61 1011.60
1010.76 1010.56 1010.39 1010.26 1010.18 1010.13 1010.12 1010.13 1010.18 1010.24 1010.32 1010.43 1010.56 1010.71 1010.90 1011.09 1011.30 1011.51 1011.70 1011.88 1012.02 1012.14 1012.24 1012.32 1012.40 1012.48 1012.58 1012.70 1012.82 1012.93 1013.02 1013.07 1013.07 1012.99 1012.85 1012.64 1012.39 1012.12 1011.86 1011.63 1011.44 1011.32 1011.26
1010.54 1010.37 1010.24 1010.17 1010.15 1010.17 1010.21 1010.26 1010.32 1010.38 1010.44 1010.51 1010.59 1010.69 1010.82 1010.97 1011.13 1011.31 1011.47 1011.63 1011.76 1011.86 1011.94 1012.01 1012.09 1012.17 1012.26 1012.38 1012.50 1012.63 1012.73 1012.79 1012.79 1012.71 1012.56 1012.34 1012.08 1011.78 1011.49 1011.23 1011.02 1010.86 1010.76
1010.11 1009.95 1009.86 1009.84 1009.87 1009.94 1010.03 1010.11 1010.18 1010.23 1010.26 1010.29 1010.31 1010.35 1010.42 1010.52 1010.64 1010.77 1010.92 1011.06 1011.18 1011.29 1011.37 1011.46 1011.54 1011.63 1011.75 1011.88 1012.02 1012.16 1012.27 1012.34 1012.34 1012.26 1012.10 1011.87 1011.58 1011.27 1010.96 1010.68 1010.45 1010.27 1010.16
1009.51 1009.36 1009.29 1009.31 1009.39 1009.51 1009.63 1009.73 1009.81 1009.84 1009.84 1009.82 1009.79 1009.77 1009.79 1009.84 1009.92 1010.03 1010.16 1010.30 1010.43 1010.55 1010.67 1010.77 1010.88 1011.00 1011.14 1011.29 1011.46 1011.61 1011.73 1011.80 1011.80 1011.71 1011.54 1011.29 1010.99 1010.67 1010.35 1010.06 1009.82 1009.64 1009.53
1008.81 1008.66 1008.62 1008.67 1008.78 1008.93 1009.08 1009.20 1009.27 1009.29 1009.26 1009.20 1009.13 1009.08 1009.06 1009.08 1009.15 1009.25 1009.39 1009.54 1009.70 1009.84 1009.98 1010.12 1010.25 1010.40 1010.56 1010.73 1010.90 1011.06 1011.18 1011.25 1011.24 1011.14 1010.96 1010.70 1010.39 1010.06 1009.73 1009.44 1009.21 1009.04 1008.94
1008.06 1007.92 1007.90 1007.98 1008.12 1008.29 1008.45 1008.58 1008.64 1008.65 1008.61 1008.53 1008.45 1008.39 1008.36 1008.39 1008.47 1008.60 1008.76 1008.94 1009.12 1009.29 1009.45 1009.60 1009.75 1009.91 1010.06 1010.23 1010.40 1010.55 1010.66 1010.72 1010.70 1010.59 1010.40 1010.13 1009.82 1009.48 1009.15 1008.87 1008.64 1008.48 1008.40
1007.31 1007.19 1007.19 1007.29 1007.45 1007.64 1007.80 1007.93 1007.99 1008.00 1007.96 1007.89 1007.82 1007.79 1007.80 1007.87 1007.99 1008.16 1008.36 1008.57 1008.77 1008.96 1009.12 1009.27 1009.40 1009.53 1009.66 1009.80 1009.94 1010.06 1010.15 1010.19 1010.15 1010.04 1009.85 1009.58 1009.27 1008.93 1008.61 1008.33 1008.10 1007.95 1007.88
1006.59 1006.51 1006.53 1006.65 1006.81 1006.99 1007.15 1007.27 1007.33 1007.35 1007.32 1007.29 1007.27 1007.29 1007.37 1007.50 1007.69 1007.91 1008.15 1008.40 1008.61 1008.79 1008.94 1009.04 1009.13 1009.20 1009.28 1009.35 1009.44 1009.51 1009.57 1009.58 1009.54 1009.43 1009.24 1008.98 1008.68 1008.36 1008.04 1007.76 1007.54 1007.39 1007.31
1005.97 1005.91 1005.94 1006.05 1006.21 1006.36 1006.50 1006.60 1006.66 1006.68 1006.69 1006.70 1006.74 1006.84 1006.99 1007.20 1007.46 1007.75 1008.03 1008.29 1008.50 1008.65 1008.74 1008.78 1008.79 1008.78 1008.77 1008.77 1008.78 1008.81 1008.83 1008.82 1008.78 1008.67 1008.51 1008.28 1008.00 1007.70 1007.40 1007.12 1006.90 1006.74 1006.65
1005.48 1005.42 1005.45 1005.53 1005.64 1005.75 1005.85 1005.92 1005.96 1005.98 1006.01 1006.07 1006.17 1006.34 1006.57 1006.85 1007.17 1007.50 1007.81 1008.06 1008.24 1008.34 1008.36 1008.32 1008.23 1008.13 1008.02 1007.94 1007.88 1007.86 1007.85 1007.84 1007.80 1007.73 1007.60 1007.42 1007.19 1006.92 1006.64 1006.37 1006.15 1005.97 1005.86
1005.16 1005.08 1005.07 1005.09 1005.14 1005.18 1005.21 1005.22 1005.23 1005.24 1005.28 1005.36 1005.50 1005.72 1006.00 1006.33 1006.68 1007.02 1007.32 1007.55 1007.69 1007.72 1007.67 1007.54 1007.35 1007.15 1006.96 1006.81 1006.70 1006.65 1006.63 1006.63 1006.63 1006.60 1006.54 1006.42 1006.24 1006.03 1005.78 1005.53 1005.30 1005.11 1004.97
1005.04 1004.91 1004.83 1004.78 1004.73 1004.69 1004.64 1004.58 1004.53 1004.50 1004.52 1004.60 1004.75 1004.97 1005.26 1005.59 1005.94 1006.26 1006.53 1006.71 1006.79 1006.76 1006.63 1006.42 1006.16 1005.90 1005.65 1005.45 1005.32 1005.25 1005.25 1005.28 1005.33 1005.37 1005.38 1005.34 1005.24 1005.08 1004.89 1004.67 1004.44 1004.24 1004.08
1005.11 1004.92 1004.76 1004.62 1004.49 1004.35 1004.21 1004.07 1003.95 1003.87 1003.84 1003.87 1003.99 1004.17 1004.42 1004.71 1005.00 1005.27 1005.48 1005.59 1005.61 1005.52 1005.33 1005.08 1004.78 1004.48 1004.21 1004.00 1003.87 1003.83 1003.85 1003.94 1004.05 1004.16 1004.25 1004.29 1004.26 1004.18 1004.04 1003.86 1003.65 1003.46 1003.28
1005.36 1005.11 1004.88 1004.66 1004.45 1004.23 1004.01 1003.80 1003.61 1003.45 1003.35 1003.31 1003.35 1003.46 1003.62 1003.82 1004.02 1004.20 1004.33 1004.37 1004.33 1004.19 1003.97 1003.70 1003.40 1003.10 1002.85 1002.67 1002.56 1002.55 1002.62 1002.75 1002.92 1003.09 1003.25 1003.36 1003.41 1003.39 1003.31 1003.18 1003.00 1002.82 1002.65
1005.76 1005.46 1005.18 1004.91 1004.64 1004.38 1004.11 1003.84 1003.59 1003.36 1003.18 1003.05 1002.99 1002.98 1003.02 1003.10 1003.18 1003.26 1003.29 1003.26 1003.17 1003.00 1002.78 1002.52 1002.24 1001.98 1001.77 1001.62 1001.55 1001.58 1001.67 1001.84 1002.04 1002.26 1002.46 1002.62 1002.73 1002.76 1002.74 1002.65 1002.52 1002.36 1002.20
1006.24 1005.92 1005.63 1005.35 1005.07 1004.79 1004.50 1004.21 1003.92 1003.64 1003.38 1003.16 1002.98 1002.85 1002.76 1002.70 1002.66 1002.62 1002.56 1002.46 1002.33 1002.15 1001.95 1001.71 1001.48 1001.27 1001.10 1000.99 1000.95 1000.99 1001.10 1001.26 1001.46 1001.68 1001.89 1002.07 1002.20 1002.27 1002.28 1002.24 1002.15 1002.02 1001.89
1006.73 1006.43 1006.16 1005.91 1005.67 1005.41 1005.14 1004.86 1004.56 1004.24 1003.93 1003.63 1003.36 1003.11 1002.89 1002.71 1002.54 1002.39 1002.25 1002.11 1001.95 1001.77 1001.58 1001.39 1001.20 1001.04 1000.90 1000.81 1000.78 1000.80 1000.87 1001.00 1001.15 1001.32 1001.50 1001.65 1001.77 1001.86 1001.89 1001.87 1001.82 1001.73 1001.62
1007.16 1006.91 1006.70 1006.51 1006.33 1006.13 1005.92 1005.67 1005.38 1005.07 1004.73 1004.38 1004.03 1003.69 1003.38 1003.09 1002.83 1002.61 1002.40 1002.22 1002.04 1001.87 1001.71 1001.55 1001.40 1001.25 1001.13 1001.03 1000.96 1000.92 1000.92 1000.96 1001.02 1001.10 1001.20 1001.29 1001.38 1001.44 1001.47 1001.47 1001.44 1001.39 1001.31
1007.51 1007.32 1007.17 1007.05 1006.94 1006.82 1006.66 1006.47 1006.23 1005.94 1005.60 1005.23 1004.85 1004.46 1004.09 1003.74 1003.43 1003.15 1002.91 1002.71 1002.53 1002.37 1002.22 1002.08 1001.94 1001.79 1001.64 1001.50 1001.36 1001.23 1001.12 1001.03 1000.97 1000.93 1000.92 1000.93 1000.94 1000.97 1000.98 1000.99 1000.97 1000.94 1000.88
1007.75 1007.61 1007.52 1007.47 1007.42 1007.36 1007.27 1007.13 1006.94 1006.69 1006.38 1006.04 1005.66 1005.27 1004.88 1004.52 1004.19 1003.90 1003.66 1003.45 1003.28 1003.13 1002.98 1002.84 1002.68 1002.51 1002.31 1002.09 1001.85 1001.61 1001.37 1001.14 1000.93 1000.76 1000.63 1000.53 1000.47 1000.44 1000.43 1000.42 1000.41 1000.39 1000.34
1007.92 1007.81 1007.76 1007.73 1007.72 1007.71 1007.66 1007.57 1007.43 1007.23 1006.98 1006.68 1006.34 1005.99 1005.64 1005.31 1005.00 1004.74 1004.51 1004.32 1004.15 1004.00 1003.85 1003.69 1003.50 1003.27 1003.01 1002.70 1002.35 1001.99 1001.61 1001.24 1000.90 1000.59 1000.34 1000.15 1000.01 999.92 999.87 999.85 999.84 999.82 999.78
Thickness
5759 5756 5754 5751 5750 5748 5745 5744 5742 5740 5738 5736 5734 5732 5730 5728 5727 5725 5724 5724 5721 5720 5720 5719 5717 5717 5716 5716 5716 5714 5713 5710 5704 5706 5709 5710 5710 5709 5708 5707 5707 5706 5705
5753 5751 5749 5747 5745 5742 5740 5738 5737 5735 5733 5732 5730 5727 5725 5724 5723 5721 5719 5718 5716 5715 5714 5713 5712 5713 5711 5711 5710 5708 5707 5707 5703 5699 5701 5702 5703 5703 5702 5702 5702 5702 5701
5748 5744 5742 5740 5738 5736 5734 5733 5731 5730 5728 5726 5724 5722 5720 5719 5717 5716 5714 5713 5712 5710 5709 5707 5707 5706 5704 5705 5704 5703 5701 5702 5700 5696 5694 5696 5696 5697 5696 5695 5697 5696 5696
5741 5738 5735 5733 5732 5731 5729 5727 5725 5724 5722 5720 5719 5717 5716 5714 5712 5710 5709 5707 5706 5705 5704 5703 5702 5700 5698 5698 5697 5696 5695 5693 5692 5689 5688 5688 5688 5689 5687 5685 5685 5688 5688
5734 5731 5728 5727 5726 5724 5722 5720 5719 5717 5716 5715 5713 5711 5710 5707 5705 5703 5703 5701 5699 5698 5697 5697 5696 5695 5693 5692 5691 5689 5688 5686 5685 5683 5681 5681 5680 5679 5678 5679 5678 5679 5680
5726 5723 5721 5720 5718 5716 5714 5713 5711 5710 5709 5708 5706 5704 5702 5700 5697 5696 5695 5694 5693 5691 5690 5690 5690 5689 5688 5686 5685 5684 5682 5680 5678 5676 5675 5674 5673 5673 5673 5673 5671 5669 5668
5718 5716 5714 5712 5710 5708 5707 5704 5703 5702 5701 5700 5699 5697 5694 5691 5690 5688 5687 5686 5686 5685 5684 5683 5684 5684 5682 5681 5679 5678 5677 5676 5675 5673 5671 5669 5668 5668 5666 5665 5664 5662 5662
5710 5708 5706 5705 5703 5701 5699 5697 5695 5694 5693 5692 5692 5690 5688 5686 5684 5682 5680 5680 5679 5679 5679 5678 5677 5676 5675 5674 5674 5673 5672 5671 5670 5669 5667 5666 5665 5664 5662 5660 5658 5658 5659
5701 5699 5698 5698 5696 5694 5691 5689 5688 5687 5686 5685 5685 5684 5682 5680 5677 5675 5673 5674 5673 5673 5673 5673 5672 5670 5669 5668 5667 5666 5665 5664 5664 5664 5662 5660 5659 5657 5656 5654 5652 5649 5648
5693 5692 5691 5691 5689 5687 5685 5683 5682 5680 5679 5679 5679 5679 5677 5675 5672 5670 5667 5668 5668 5668 5667 5667 5665 5664 5662 5661 5660 5660 5658 5658 5658 5657 5655 5654 5653 5651 5649 5647 5645 5642 5641
5686 5685 5684 5683 5681 5680 5678 5676 5674 5673 5673 5672 5672 5672 5671 5669 5666 5664 5661 5662 5662 5662 5662 5661 5660 5658 5656 5655 5654 5654 5653 5652 5651 5650 5649 5647 5647 5645 5644 5642 5640 5638 5635
5678 5677 5675 5674 5673 5672 5670 5668 5667 5666 5664 5663 5663 5663 5664 5662 5660 5657 5656 5655 5655 5655 5655 5656 5654 5652 5650 5649 5648 5648 5647 5645 5645 5644 5642 5641 5640 5638 5638 5637 5635 5634 5633
5669 5668 5667 5665 5664 5663 5662 5660 5659 5658 5657 5656 5656 5655 5655 5655 5653 5651 5649 5649 5648 5648 5648 5647 5646 5645 5644 5643 5643 5642 5641 5640 5639 5637 5636 5635 5635 5634 5633 5631 5630 5629 5628
5661 5660 5659 5657 5655 5654 5654 5653 5652 5650 5650 5649 5648 5647 5647 5647 5645 5643 5642 5641 5640 5640 5640 5639 5639 5639 5638 5638 5638 5637 5637 5636 5635 5633 5632 5631 5630 5628 5626 5625 5623 5622 5620
5654 5652 5651 5650 5648 5646 5644 5643 5643 5640 5641 5640 5640 5640 5638 5636 5633 5632 5632 5634 5634 5633 5632 5633 5633 5633 5633 5633 5634 5634 5633 5632 5630 5628 5626 5624 5623 5621 5620 5620 5618 5616 5614
5646 5645 5644 5643 5642 5639 5637 5635 5632 5632 5631 5631 5630 5629 5628 5627 5625 5626 5626 5627 5626 5625 5625 5627 5629 5629 5629 5629 5628 5628 5627 5625 5624 5621 5619 5617 5616 5614 5614 5614 5612 5610 5608
5639 5638 5638 5637 5636 5634 5633 5631 5627 5623 5622 5621 5622 5621 5620 5619 5619 5619 5619 5620 5620 5618 5619 5622 5623 5624 5624 5623 5622 5621 5620 5619 5617 5614 5612 5611 5609 5608 5607 5606 5605 5604 5602
5633 5632 5631 5630 5630 5629 5629 5627 5625 5623 5619 5617 5614 5613 5613 5612 5612 5612 5611 5611 5614 5614 5615 5615 5616 5616 5616 5615 5615 5613 5612 5611 5609 5607 5605 5604 5603 5602 5601 5599 5598 5597 5596
5627 5626 5625 5625 5625 5624 5624 5623 5621 5619 5617 5614 5612 5608 5605 5605 5604 5604 5603 5604 5608 5609 5609 5608 5608 5607 5607 5606 5606 5605 5604 5603 5601 5599 5598 5597 5596 5595 5594 5593 5592 5590 5589
5619 5618 5618 5619 5620 5618 5618 5617 5615 5613 5611 5608 5606 5604 5601 5599 5599 5599 5598 5599 5600 5601 5601 5600 5599 5598 5597 5597 5597 5596 5595 5594 5593 5591 5590 5589 5589 5589 5588 5587 5586 5585 5583
5614 5613 5610 5612 5612 5612 5611 5611 5609 5607 5605 5602 5600 5598 5595 5595 5595 5594 5594 5593 5593 5592 5591 5591 5590 5590 5590 5589 5588 5587 5586 5585 5584 5583 5582 5582 5582 5582 5581 5581 5580 5579 5578
5607 5606 5605 5605 5605 5604 5603 5603 5602 5601 5598 5596 5595 5592 5588 5589 5589 5589 5587 5586 5585 5584 5584 5583 5582 5582 5581 5580 5579 5579 5577 5576 5575 5575 5575 5574 5575 5575 5575 5575 5574 5572 5571
5601 5601 5599 5598 5597 5594 5594 5595 5595 5594 5592 5591 5590 5587 5584 5583 5583 5582 5580 5579 5578 5577 5576 5575 5574 5573 5572 5571 5570 5570 5569 5567 5566 5566 5566 5567 5567 5568 5568 5568 5567 5566 5565
5595 5595 5594 5592 5591 5589 5588 5588 5588 5587 5586 5584 5583 5580 5578 5577 5576 5574 5573 5571 5570 5569 5568 5567 5566 5565 5563 5562 5561 5559 5558 5557 5557 5557 5558 5558 5559 5561 5561 5561 5561 5561 5559
5590 5589 5588 5586 5584 5583 5582 5581 5580 5579 5577 5576 5575 5573 5572 5569 5567 5566 5564 5563 5562 5561 5560 5559 5558 5556 5555 5553 5551 5549 5548 5548 5548 5548 5549 5551 5552 5554 5555 5555 5555 5555 5554
5583 5582 5581 5580 5578 5576 5575 5574 5573 5572 5571 5569 5568 5566 5564 5562 5560 5558 5556 5554 5554 5553 5553 5551 5549 5547 5546 5544 5542 5540 5539 5540 5539 5540 5541 5543 5545 5547 5548 5548 5548 5548 5548